CAPE
1676 1502 1428 1468 1368 1371 1364 1191 1288 1138 1050 869 941 718 376 273 415 623 766 651 684 596 458 442 477 597 651 555 607 638 441 534 427 282 171 178 332 214 217 194 181 195 148 142 137 150 160 210 262 312 222 256 319 317 337 283 250 340 258 308 161 153 167 252 276 198 270 432 662 570 662 750 648 754 1162 1206 1199 1110 913 719 440 517 518 555 459
1538 1570 1366 1519 1402 1411 1564 1435 1195 1020 790 803 876 706 437 334 352 368 535 718 530 457 383 559 564 421 539 435 423 421 394 319 309 302 292 269 364 299 225 202 158 177 172 197 211 170 200 202 272 298 301 250 306 303 364 370 306 245 236 196 92 104 255 224 412 354 250 86 152 468 1136 1473 1358 1273 1316 1152 916 603 519 480 363 430 533 538 527
1456 1490 1426 1262 1300 1187 1439 1320 1246 995 737 970 1041 513 338 422 334 516 480 528 608 584 545 551 523 648 459 441 470 296 416 406 349 381 396 358 438 325 330 240 200 152 138 141 189 206 202 205 208 247 301 266 261 304 330 377 369 323 351 209 204 83 86 203 487 427 187 111 251 228 279 768 1252 1116 948 778 626 594 508 509 552 532 498 496 449
1410 1517 1587 1351 1196 1394 1367 1556 1455 1215 759 1092 865 527 405 337 571 676 636 594 693 835 657 764 796 1001 856 759 712 638 577 572 828 480 355 367 353 218 212 262 180 152 113 85 111 174 176 150 135 205 208 245 167 183 279 294 374 319 328 312 339 156 52 107 217 463 462 352 97 87 114 214 145 580 545 634 534 416 434 412 498 420 406 378 391
1429 1552 1437 1569 1604 1489 1312 1537 1765 1344 1062 901 931 681 354 441 706 665 759 927 806 736 797 824 1133 1236 1131 1049 736 713 806 684 539 372 357 282 122 180 175 76 15 2 61 72 84 146 167 133 134 148 207 222 157 164 183 205 211 242 363 318 356 350 176 179 300 398 495 732 477 248 97 124 131 565 621 641 355 341 239 315 307 296 286 270 221
1468 1391 1449 1454 1713 1552 1431 1687 1803 1724 1260 1127 951 792 397 569 655 760 842 862 870 1001 1029 1201 865 960 1019 1059 1086 1025 818 667 490 468 360 206 196 334 162 67 29 14 0 20 40 107 176 179 207 106 182 202 197 168 190 194 214 247 196 242 284 395 376 160 201 699 736 801 934 900 1183 560 506 592 458 269 520 280 150 149 233 228 256 199 144
1580 1620 1466 1779 1546 1549 1464 1631 1637 1835 1652 1514 1122 885 322 300 410 519 615 705 781 891 1026 842 867 713 802 810 694 632 516 461 475 484 510 415 454 340 226 211 38 16 12 0 3 20 120 126 189 92 92 114 66 149 136 186 93 180 226 204 249 284 366 293 257 303 779 661 687 1261 1372 1132 837 781 592 291 345 136 159 15 2 71 167 96 44
1727 1761 1708 1704 1833 1590 1458 1398 1351 1478 1807 1718 1348 1187 788 334 389 460 510 476 727 816 763 753 844 894 888 874 743 659 601 693 748 609 509 493 487 369 348 185 46 43 26 4 2 2 36 68 101 112 88 78 41 92 122 102 84 180 180 206 201 284 363 365 372 371 319 998 985 1061 1032 1100 818 1183 743 573 404 123 22 5 13 5 6 112 61
1651 1565 1727 1912 1798 1810 1639 1550 1290 825 1847 1727 1424 1357 1220 634 91 245 628 638 723 789 685 573 565 699 998 976 873 651 595 716 533 438 609 534 550 441 312 163 128 78 36 20 10 1 15 63 78 113 175 204 57 50 98 108 145 133 116 96 214 242 338 392 396 406 504 878 934 860 822 716 968 705 865 908 677 655 162 34 16 17 15 6 6
1133 1413 1650 1814 1946 1989 1817 1767 1527 1382 2079 1775 1572 1500 1612 1162 700 587 640 630 808 1023 837 800 603 732 946 1066 972 576 546 648 709 562 755 618 533 497 449 287 105 109 95 22 0 0 22 10 34 111 154 148 134 121 86 72 74 121 129 101 125 133 206 306 359 368 800 939 784 762 721 659 668 646 749 765 866 371 411 38 68 138 17 6 2
1136 1256 1384 1718 2166 2035 1906 1855 1897 1681 1836 1978 1937 1745 1716 1520 1245 912 934 895 1012 1108 951 832 846 673 818 958 906 710 750 831 848 741 734 637 479 401 357 263 236 102 91 50 17 4 4 14 79 116 114 120 85 11 46 17 12 31 38 56 67 75 103 194 226 370 904 821 808 703 644 588 606 525 340 596 707 348 444 126 240 116 21 3 0
1156 1099 1346 1534 2237 2257 2028 1964 2110 1843 1668 1753 1789 1714 1627 1651 1778 1490 1262 1102 1122 1217 1016 1018 802 806 826 805 992 889 790 774 851 803 606 674 530 299 370 273 222 132 74 8 13 2 12 58 88 112 111 105 72 18 12 16 13 8 7 13 14 15 49 131 200 237 370 440 302 648 739 736 834 784 749 768 525 415 651 163 134 77 12 2 0
1263 1322 1541 1748 1935 2140 2172 1780 1892 1800 1926 1901 1733 1593 1543 1564 1696 1597 1568 1339 1293 1340 1106 1079 978 895 908 850 898 858 730 703 824 890 756 708 576 588 339 186 145 47 1 2 2 8 12 35 53 30 40 64 39 29 32 23 15 10 6 7 4 9 36 42 44 172 173 165 207 161 350 360 517 888 896 928 803 519 852 298 322 160 23 4 0
1390 1585 1667 1848 1848 1706 2052 2027 1953 1881 1675 1825 1749 1721 1645 1647 1672 1543 1568 1622 1516 1484 1272 1227 1039 957 935 910 966 759 858 783 739 792 782 737 613 744 490 327 207 27 1 0 0 4 22 20 80 64 62 39 27 32 26 18 10 10 10 4 3 17 24 21 46 80 121 182 187 122 215 212 399 748 1043 869 932 569 404 553 287 154 43 3 2
1785 1749 1486 1516 1807 1886 1950 1982 2039 2077 1963 1818 1816 1760 1700 1673 1616 1541 1512 1832 1732 1671 1516 1353 1173 1112 1030 868 856 821 878 764 821 647 837 670 689 617 596 359 298 44 0 0 0 4 14 24 25 31 30 32 29 22 18 17 10 10 12 8 7 15 5 11 40 57 74 129 228 217 228 218 263 532 830 941 764 871 614 276 489 150 117 28 6
1376 1442 1489 1620 1816 2007 2036 2137 2115 2089 2162 2046 1856 1836 1786 1785 1789 1696 1612 1772 1885 1738 1658 1554 1289 1253 1134 944 873 861 668 761 814 595 712 814 739 664 520 453 196 18 0 0 0 3 41 51 36 31 16 18 15 9 11 10 9 9 9 11 12 9 17 7 20 40 61 80 107 153 165 184 263 441 722 868 846 1202 1025 749 266 639 264 27 1
1294 1427 1494 1703 1678 1894 1933 2106 2067 2164 2176 2202 2152 2064 1962 1889 1800 1868 1744 1775 1957 1870 1850 1672 1471 1377 1300 988 907 929 905 863 782 750 717 745 883 748 607 357 123 7 1 0 0 11 39 29 30 7 5 7 5 6 7 6 4 0 0 2 3 12 15 7 18 19 24 19 41 52 122 99 82 205 662 797 872 867 1024 1074 918 629 911 133 51
1388 1386 1632 1770 1700 1870 1928 1989 2077 2107 2148 2086 2147 2166 2168 2131 2014 1930 1894 1890 1931 1981 1945 1852 1689 1516 1302 1098 1005 967 875 788 798 765 731 856 878 805 558 301 138 16 0 0 0 7 63 42 28 8 4 3 2 4 0 2 0 0 4 2 2 16 12 3 1 2 0 6 13 69 69 44 24 95 281 668 1016 733 992 988 751 280 508 413 43
1643 1475 1513 1766 1714 1887 1963 2013 1853 2120 2247 2164 1866 2054 2200 2254 2213 2155 2074 2030 2071 2062 1956 1890 1770 1564 1306 1316 1163 1021 887 755 696 726 830 725 750 698 556 306 143 20 0 2 1 0 40 46 22 12 8 2 1 2 0 0 0 0 0 3 0 3 0 0 0 0 0 0 0 1 13 0 1 18 16 272 731 978 637 682 905 956 887 734 249
1596 1546 1517 1651 1784 1818 1805 1929 1759 1862 2014 1972 2006 1916 2008 2357 2398 2359 2245 2184 2124 2062 2036 1930 1786 1576 1481 1376 1270 983 902 745 776 812 695 670 704 618 458 404 182 10 6 0 0 0 14 50 7 4 6 2 2 0 0 0 0 0 0 0 0 0 0 0 0 0 0 0 0 0 0 0 0 0 0 1 99 406 949 737 668 856 896 770 573
1522 1565 1560 1504 1862 2020 1862 1983 1630 1594 1641 1782 1842 2017 1954 2138 2176 2085 2248 2172 2224 2289 2147 1983 1730 1663 1632 1569 1408 1228 1035 830 875 762 678 667 634 560 498 361 165 60 2 0 0 3 2 6 4 0 1 1 0 0 0 0 0 0 0 0 0 0 0 0 0 0 0 0 0 0 0 0 0 0 0 0 0 41 399 1000 891 919 720 374 143
1793 1762 1611 1688 1899 1945 1695 1592 1654 1592 1616 1576 1612 1841 1778 1922 1829 2017 2005 2000 2047 2180 2255 2109 1952 1895 1775 1624 1555 1386 1168 881 867 810 557 505 615 487 532 325 201 76 3 2 0 32 0 2 0 0 0 0 0 0 0 0 0 0 0 0 0 0 0 0 0 0 0 0 0 0 0 0 0 0 0 0 0 0 32 243 982 317 210 193 192
1400 1640 1534 1488 1622 1814 1378 1420 1542 1484 1622 1608 1729 1780 1739 1848 1822 1669 1765 1925 1684 1743 1946 2153 2074 2065 1957 1783 1636 1483 1141 781 779 754 577 354 316 304 488 457 179 114 2 0 0 11 0 0 0 0 0 0 0 0 0 0 0 0 0 0 0 0 0 0 0 0 0 0 0 0 0 0 0 0 0 0 0 15 30 135 205 162 206 262 284
987 1062 1109 1180 1315 1330 1116 1158 1153 1132 1346 1573 1713 1652 1783 1817 1810 1716 1676 1819 1733 1682 1648 1919 2144 2222 2117 1864 1676 1150 909 847 773 831 611 424 334 428 488 432 193 98 3 0 0 0 16 4 0 0 0 0 0 0 0 0 0 0 0 0 0 0 0 0 0 0 0 0 0 0 0 0 0 0 0 0 16 78 104 163 252 255 268 254 174
820 1009 1149 1220 1022 718 712 914 926 1014 1090 1341 1278 1375 1524 1684 1900 1833 1720 1854 1908 1861 1726 1720 1951 2206 2113 1867 1472 1145 827 636 886 833 460 298 313 529 508 371 250 89 4 4 0 0 2 0 0 0 0 0 0 0 0 0 0 0 0 0 0 0 0 0 0 0 0 0 0 0 0 0 0 0 0 0 41 121 48 148 163 104 222 209 50
609 708 790 714 591 582 893 995 910 1077 1006 1050 1228 1479 1482 1488 1686 1899 1772 1807 1888 1886 1834 1795 1816 2062 1952 1845 1615 1360 1098 808 779 728 667 389 306 568 534 418 254 73 20 10 2 0 0 0 0 0 0 0 0 0 0 0 0 0 0 0 0 0 0 0 0 0 0 0 0 0 0 0 0 0 0 0 0 15 7 19 26 3 6 8 1
364 532 592 640 630 695 778 797 640 534 710 1049 1269 1222 1069 1268 1466 1670 1699 1643 1787 1920 1912 1866 1961 2018 1922 1800 1485 1279 1078 770 720 531 387 217 280 553 520 413 243 71 28 8 1 0 0 0 0 0 0 0 0 0 0 0 0 0 0 0 0 0 0 0 0 0 0 0 0 0 0 0 0 0 0 0 0 0 0 0 0 0 0 0 0
290 365 436 448 597 794 827 746 690 604 606 757 1086 1270 1240 1143 1219 1438 1486 1520 1581 1674 1757 1852 1876 1865 1883 1672 1514 1053 1219 995 724 548 339 343 419 567 526 408 236 71 22 2 0 0 0 0 0 0 0 0 0 0 0 0 0 0 0 0 0 0 0 0 0 0 0 0 0 0 0 0 0 0 0 0 0 0 0 0 0 0 0 0 0
160 254 286 355 298 427 499 536 533 509 528 559 856 1046 1290 1394 1121 1164 1380 1452 1496 1511 1605 1742 1745 1718 1743 1661 1624 1253 1179 1021 807 647 670 660 615 510 482 385 264 90 32 2 0 0 0 0 0 0 0 0 0 0 0 0 0 0 0 0 0 0 0 0 0 0 0 0 0 0 0 0 0 0 0 0 0 0 0 0 0 0 0 0 0
164 163 153 134 175 276 322 450 484 430 445 427 766 958 1259 1342 1335 1392 1538 1595 1482 1480 1545 1655 1587 1616 1704 1665 1637 1424 1196 1110 816 686 671 624 602 580 467 392 265 84 38 9 0 0 0 0 0 0 0 0 0 0 0 0 0 0 0 0 0 0 0 0 0 0 0 0 0 0 0 0 0 0 0 0 0 0 0 0 0 0 0 0 0
89 94 80 80 84 121 220 340 324 330 321 294 475 905 1130 1139 1265 1365 1263 1070 975 1341 1448 1435 1382 1402 1452 1614 1625 1526 1382 1263 938 831 598 416 483 591 532 398 265 76 48 26 4 0 0 0 0 0 0 0 0 0 0 0 0 0 0 0 0 0 0 0 0 0 0 0 0 0 0 0 0 0 0 0 0 0 0 0 0 0 0 1 0
90 77 72 57 46 81 177 224 144 151 208 302 641 239 600 979 1345 1369 1445 1238 1327 1150 1332 1477 1508 1492 1565 1574 1588 1600 1465 1256 1191 915 692 620 549 466 539 433 230 94 64 40 10 0 0 0 0 0 0 0 0 0 0 0 0 0 0 0 0 0 0 0 0 0 0 0 0 0 0 0 0 0 0 0 0 0 0 0 0 0 0 0 0
130 118 116 100 79 70 93 128 60 72 159 301 306 319 570 741 1316 1423 1437 1549 1288 1269 1391 1234 1308 1629 1643 1704 1596 1560 1467 1348 1120 1106 954 826 691 620 522 390 211 165 111 54 19 2 0 0 0 0 0 0 0 0 0 0 0 0 0 0 0 0 0 0 0 0 0 0 0 0 0 0 0 0 0 0 0 0 0 0 0 0 0 0 0
114 134 145 151 26 2 99 90 84 67 58 66 47 323 819 232 146 648 1359 1578 1015 836 1132 1119 1240 1616 1589 1425 1248 1109 1105 1343 1114 1074 1070 932 723 617 562 368 253 225 119 68 44 9 1 0 0 0 0 0 0 0 0 0 0 0 0 0 0 0 0 0 0 0 0 0 0 0 0 0 0 0 0 0 0 0 0 0 0 0 0 0 0
86 109 118 177 149 159 2 136 91 78 22 1 4 62 336 48 1 341 533 777 1443 1186 1494 1342 1443 1459 1488 1163 828 838 972 1112 1206 1111 988 924 782 645 564 464 286 264 138 83 57 36 16 1 0 0 0 0 0 0 0 0 0 0 0 0 0 0 0 0 0 0 0 0 0 0 0 0 0 0 0 0 0 0 0 0 0 0 0 0 0
113 198 219 193 98 30 2 13 81 24 13 5 6 18 97 152 0 13 205 486 992 411 647 965 1293 1464 1296 1293 1404 1287 1313 1334 1280 1181 1018 788 728 662 588 491 379 262 166 68 63 56 25 6 0 0 0 0 0 0 0 0 0 0 0 0 0 0 0 0 0 0 0 0 0 0 0 0 0 0 0 0 0 0 0 0 0 0 0 0 0
169 196 240 320 297 191 92 81 178 4 1 3 0 19 91 11 63 7 0 35 66 501 636 598 584 836 1106 1407 1298 946 1235 1446 1368 1262 1188 1132 970 696 615 530 423 315 205 82 97 72 33 14 0 0 0 0 0 0 0 0 0 0 0 0 0 0 0 0 0 0 0 0 0 0 0 0 0 0 0 0 0 0 0 0 0 0 0 0 0
176 179 266 308 237 196 145 71 174 30 57 96 102 2 9 0 0 3 0 0 44 63 155 310 540 612 815 972 1094 1324 1099 852 641 900 931 975 978 846 670 632 394 383 270 120 98 76 30 9 0 0 0 0 0 0 0 0 0 0 0 0 0 0 0 0 0 0 0 0 0 0 0 0 0 0 0 0 0 0 0 0 0 0 0 0 0
30 62 134 160 188 160 137 112 63 84 95 104 116 252 288 1 2 2 0 1 105 89 77 434 522 580 594 503 843 1165 1199 1290 904 661 737 636 762 628 283 237 41 272 301 313 29 20 11 0 0 0 0 0 0 0 0 0 0 0 0 0 0 0 0 0 0 0 0 0 0 0 0 0 0 0 0 0 0 0 0 0 0 0 0 0 0
50 87 74 99 118 70 46 95 93 147 148 75 119 167 297 399 239 6 0 1 40 144 114 185 467 659 754 774 806 948 1223 1189 1023 1051 544 307 610 306 342 360 257 221 228 174 11 0 1 0 0 0 0 0 0 0 0 0 0 0 0 0 0 0 0 0 0 0 0 0 0 0 0 0 0 0 0 0 0 0 0 0 0 0 0 0 0
64 73 46 81 73 93 98 108 171 168 125 95 76 219 149 76 204 182 24 34 70 154 188 422 581 395 244 351 693 794 1055 1229 1234 1250 1248 914 589 262 288 158 11 0 58 71 74 6 0 0 0 0 0 0 0 0 0 0 0 0 0 0 0 0 0 0 0 0 0 0 0 0 0 0 0 0 0 0 0 0 0 0 0 0 0 0 0
29 12 5 58 79 86 79 95 84 54 58 72 110 202 139 173 147 14 74 34 19 99 0 2 4 97 337 643 706 1006 1139 1127 1136 1236 1213 1185 683 466 283 267 290 285 255 224 204 25 2 22 26 6 0 0 0 0 0 0 0 0 0 0 0 0 0 0 0 0 0 0 0 0 0 0 0 0 0 0 0 0 0 0 0 0 0 0 0
4 0 0 13 18 24 23 28 16 6 13 20 56 62 14 6 0 4 3 16 66 129 102 70 85 282 310 392 654 906 1046 993 1147 1122 1156 1211 1050 564 347 159 82 227 151 106 178 95 9 6 12 28 3 0 0 0 0 0 0 0 0 0 0 0 0 0 0 0 0 0 0 0 0 0 0 0 0 0 0 0 0 0 0 0 0 0 0
0 0 0 3 8 5 4 7 0 0 0 0 11 13 1 0 0 0 0 0 10 97 196 392 383 190 165 303 365 460 703 783 853 1078 1058 1114 994 766 458 436 77 11 34 128 184 230 96 4 158 76 21 2 0 0 0 0 0 0 0 0 0 0 0 0 0 0 0 0 0 0 0 0 0 0 0 0 0 0 0 0 0 0 0 0 0
0 0 0 0 0 0 0 2 1 0 0 0 0 0 0 0 0 0 0 0 2 14 46 126 174 205 359 396 416 518 672 811 919 760 861 834 892 938 679 384 289 43 50 58 88 56 61 109 44 145 96 5 0 0 0 0 0 0 0 0 0 0 0 0 0 0 0 0 0 0 0 0 0 0 0 0 0 0 0 0 0 0 0 0 0
0 0 0 0 0 0 0 0 0 0 0 0 0 0 0 0 0 0 0 0 0 0 2 35 86 130 120 134 51 122 41 154 642 906 903 744 660 719 812 730 176 206 24 140 295 121 63 81 36 205 168 24 0 0 0 0 0 0 0 0 0 0 0 0 0 0 0 0 0 0 0 0 0 0 0 0 0 0 0 0 0 0 0 0 0
0 0 0 0 0 0 0 0 0 0 0 0 0 0 2 5 0 0 0 0 0 0 0 8 41 34 54 26 0 0 37 124 106 267 438 480 588 639 732 681 591 469 18 68 25 52 51 22 63 46 272 164 0 59 0 0 0 0 0 0 0 0 0 0 0 0 0 0 0 0 0 0 0 0 0 0 0 0 0 0 0 0 0 0 0
0 0 0 0 0 0 0 0 0 0 0 0 0 0 0 0 4 1 1 0 0 8 11 7 5 6 9 3 0 0 2 4 2 11 50 236 379 754 842 805 827 615 314 52 29 3 7 121 87 10 73 39 2 0 0 0 0 0 0 0 0 0 0 0 0 0 0 0 0 0 0 0 0 0 0 0 0 0 0 0 0 0 0 0 0
0 0 0 0 0 0 0 0 0 0 0 0 0 0 0 0 0 0 0 0 0 0 1 3 1 0 0 0 0 0 0 0 0 0 0 57 337 354 563 741 721 691 271 452 123 32 11 10 3 82 4 15 13 12 0 0 0 0 0 0 0 0 0 0 0 0 0 0 0 0 0 0 0 0 0 0 0 0 0 0 0 0 0 0 0
0 0 0 0 0 0 0 0 0 0 0 0 0 0 0 0 0 0 0 0 0 0 1 4 0 0 0 0 0 0 0 0 0 0 0 2 86 308 349 362 404 264 74 29 53 225 23 18 14 12 3 12 57 83 0 0 1 0 0 0 0 0 0 0 0 0 0 0 0 0 0 0 0 0 0 0 0 0 0 0 0 0 0 0 0
0 0 0 0 0 0 0 0 0 0 0 0 0 0 0 0 0 2 2 2 0 0 0 0 3 5 0 0 0 0 0 0 0 0 0 0 0 291 245 0 1 79 45 0 0 0 0 2 32 18 26 0 0 0 0 136 82 6 0 0 0 0 0 0 0 0 0 0 0 0 0 0 0 0 0 0 0 0 0 0 0 0 0 0 0
Wind_Speed
10 10 11 13 15 17 17 18 18 17 16 16 15 15 14 14 14 13 12 11 10 10 10 11 13 14 14 15 16 16 17 17 17 17 18 18 19 20 20 20 21 21 22 21 21 20 20 21 21 22 21 23 23 23 23 23 22 21 20 21 20 21 23 22 21 20 24 25 27 29 31 32 34 34 36 37 37 37 38 40 40 40 40 42 43
10 10 10 11 12 14 15 17 18 16 15 15 15 15 14 14 14 14 13 11 11 11 12 12 12 13 14 16 16 17 17 17 18 19 19 19 20 21 21 21 21 22 21 22 22 22 22 22 22 22 22 22 22 22 22 21 21 21 19 19 nan 21 22 21 22 19 21 nan 24 27 29 31 33 35 36 37 38 38 38 40 40 41 42 43 43
11 11 11 11 12 13 12 14 16 16 17 15 16 16 15 14 15 14 14 14 13 13 12 14 14 14 15 16 17 18 18 18 19 20 20 20 21 21 22 21 22 22 21 22 22 22 22 22 22 21 21 20 19 19 20 20 19 20 21 21 21 nan nan 25 24 22 21 23 23 23 28 30 31 33 33 35 35 35 37 39 40 41 42 42 42
15 13 13 12 12 12 12 12 14 14 15 16 16 16 15 14 15 15 16 15 14 13 14 15 16 16 17 18 18 18 19 19 20 20 20 21 21 22 22 22 23 23 23 nan 23 23 22 21 21 20 19 18 18 19 20 20 21 21 22 23 23 23 nan 26 26 25 24 24 nan nan 26 25 30 33 35 34 36 37 37 38 38 38 39 39 39
17 17 15 14 13 12 11 12 13 12 12 14 15 15 14 15 15 15 15 15 14 13 14 15 16 17 17 19 19 19 18 18 19 20 20 21 21 22 23 nan nan nan nan nan nan 23 22 21 20 20 20 19 19 21 22 23 23 24 24 25 27 25 26 26 28 26 27 27 26 25 nan 27 30 36 36 36 34 38 39 39 39 38 38 38 38
18 18 18 16 14 13 12 12 11 11 11 12 13 14 13 14 15 14 14 13 13 12 12 12 14 16 17 17 17 16 17 17 18 19 19 20 21 21 23 nan nan nan nan nan nan 23 22 22 21 20 21 21 22 23 24 24 26 26 27 26 27 28 26 27 28 29 28 29 29 30 30 28 29 31 33 35 37 39 40 40 40 39 38 39 39
19 19 18 18 16 15 14 12 10 10 10 11 11 12 12 13 13 14 14 13 12 12 12 13 15 16 16 17 17 16 17 18 18 19 19 19 20 20 21 21 nan nan nan nan nan nan 22 22 22 nan nan 24 nan 25 26 25 nan 27 27 28 29 29 28 29 29 30 30 30 30 31 31 30 31 29 32 40 39 38 38 nan nan nan 40 nan nan
18 20 20 19 18 16 15 12 10 7 9 9 9 9 9 10 11 12 13 14 15 14 12 12 14 15 16 17 17 16 16 18 18 18 18 18 19 20 19 19 nan nan nan nan nan nan nan nan 23 23 nan nan nan nan 27 27 nan 29 29 29 30 30 30 30 30 31 31 32 31 31 31 31 30 31 29 29 39 42 nan nan nan nan nan 39 nan
16 17 19 19 18 16 15 14 10 7 7 7 6 6 7 8 nan 10 11 14 16 13 12 13 13 13 14 15 15 16 16 16 17 17 18 18 19 20 20 20 20 nan nan nan nan nan nan nan nan 25 25 25 nan nan nan 28 28 29 29 nan 28 29 29 29 29 31 32 32 30 32 30 31 31 32 31 30 33 40 40 nan nan nan nan nan nan
15 15 16 17 17 17 16 14 12 8 6 4 5 6 7 8 8 9 10 11 13 12 12 13 12 12 13 13 14 15 15 15 15 17 17 18 20 20 21 21 21 21 nan nan nan nan nan nan nan 26 25 25 25 26 nan nan nan 28 28 29 28 28 29 29 30 31 32 32 32 31 31 30 30 29 30 30 29 39 38 nan nan 37 nan nan nan
14 14 14 15 17 17 16 16 14 11 6 4 5 6 7 7 8 8 9 10 11 11 11 12 11 11 11 12 14 15 15 15 15 17 18 18 20 21 22 23 22 23 nan nan nan nan nan nan nan 25 25 24 nan nan nan nan nan nan nan nan nan nan 29 29 30 31 31 32 32 31 29 28 26 24 25 24 22 36 38 36 35 36 nan nan nan
13 14 14 15 15 16 16 16 15 13 10 7 4 5 6 7 8 8 10 10 10 9 9 10 11 10 10 12 13 15 15 16 16 17 18 19 20 21 22 22 23 23 nan nan nan nan nan nan nan 25 25 24 nan nan nan nan nan nan nan nan nan nan nan 29 30 29 29 28 28 26 25 24 23 21 23 21 26 32 35 38 37 nan nan nan nan
13 12 12 12 12 13 14 14 14 14 12 10 7 4 4 5 7 7 9 9 8 8 8 10 10 10 11 12 14 15 15 15 16 18 19 19 20 21 21 21 22 nan nan nan nan nan nan nan nan nan nan nan nan nan nan nan nan nan nan nan nan nan nan nan nan 26 24 24 23 23 22 22 22 22 22 22 27 30 33 37 36 36 nan nan nan
11 11 11 11 10 11 12 13 13 12 12 11 10 8 6 6 6 6 6 8 8 8 9 10 11 11 12 13 15 16 16 16 17 18 20 20 21 22 21 22 22 nan nan nan nan nan nan nan nan nan nan nan nan nan nan nan nan nan nan nan nan nan nan nan nan nan 21 20 20 21 21 22 23 23 24 24 26 30 30 34 34 34 nan nan nan
12 12 11 11 11 10 11 12 12 12 12 10 9 9 9 9 9 8 8 9 9 10 10 10 12 13 14 15 16 17 18 18 18 19 20 20 21 22 21 21 20 nan nan nan nan nan nan nan nan nan nan nan nan nan nan nan nan nan nan nan nan nan nan nan nan nan nan 19 20 20 21 23 23 24 24 24 25 23 26 30 31 34 29 nan nan
13 13 12 11 11 11 11 11 12 12 12 11 10 9 9 9 10 11 10 11 12 12 12 12 13 15 16 17 18 19 20 21 21 20 21 20 21 21 22 20 20 nan nan nan nan nan nan nan nan nan nan nan nan nan nan nan nan nan nan nan nan nan nan nan nan nan nan nan 20 20 21 24 22 21 21 20 21 22 21 24 28 27 27 nan nan
15 15 13 14 13 12 11 11 11 11 11 11 10 10 10 11 11 12 13 13 13 15 14 15 16 17 19 20 20 21 21 21 21 22 22 21 20 20 21 20 20 nan nan nan nan nan nan nan nan nan nan nan nan nan nan nan nan nan nan nan nan nan nan nan nan nan nan nan nan nan 21 nan nan 17 18 17 19 19 20 15 21 23 18 20 nan
18 16 16 16 15 15 13 12 11 12 11 12 11 11 10 11 12 13 14 15 15 16 17 18 19 20 21 21 22 21 21 21 21 23 23 22 20 20 21 21 19 nan nan nan nan nan nan nan nan nan nan nan nan nan nan nan nan nan nan nan nan nan nan nan nan nan nan nan nan nan nan nan nan nan 15 16 16 16 15 12 13 14 17 12 nan
19 19 18 18 18 18 17 16 15 15 14 12 13 13 12 12 13 13 14 15 16 17 18 19 20 20 21 22 22 22 22 21 22 23 23 21 20 20 21 20 19 nan nan nan nan nan nan nan nan nan nan nan nan nan nan nan nan nan nan nan nan nan nan nan nan nan nan nan nan nan nan nan nan nan nan 11 11 10 12 10 9 7 7 7 11
19 20 20 19 19 19 20 20 20 20 19 18 17 15 15 15 15 16 16 16 17 18 19 19 20 21 22 22 23 22 22 23 23 22 21 20 20 21 21 20 18 nan nan nan nan nan nan nan nan nan nan nan nan nan nan nan nan nan nan nan nan nan nan nan nan nan nan nan nan nan nan nan nan nan nan nan nan 6 3 5 5 5 4 5 7
18 19 19 18 18 19 21 22 21 22 21 20 20 19 19 18 18 18 18 18 19 19 19 19 19 20 21 22 22 22 22 21 21 21 21 20 19 19 21 19 19 nan nan nan nan nan nan nan nan nan nan nan nan nan nan nan nan nan nan nan nan nan nan nan nan nan nan nan nan nan nan nan nan nan nan nan nan nan 4 2 4 5 5 6 6
16 17 17 17 17 18 19 21 21 22 21 21 21 21 20 21 21 21 20 20 20 20 20 19 18 19 20 20 21 21 21 21 22 22 22 21 19 19 20 20 20 nan nan nan nan nan nan nan nan nan nan nan nan nan nan nan nan nan nan nan nan nan nan nan nan nan nan nan nan nan nan nan nan nan nan nan nan nan nan 4 2 2 2 3 3
16 18 18 18 17 15 17 18 19 20 20 20 20 21 20 21 21 20 21 20 19 19 19 20 19 20 21 21 22 22 22 22 24 24 23 22 19 18 20 20 21 24 nan nan nan nan nan nan nan nan nan nan nan nan nan nan nan nan nan nan nan nan nan nan nan nan nan nan nan nan nan nan nan nan nan nan nan nan nan 1 2 3 2 1 3
19 20 20 18 17 16 16 16 16 17 18 19 19 18 19 19 19 20 21 21 19 19 19 20 21 22 24 25 27 27 26 23 24 25 24 23 18 19 21 22 23 nan nan nan nan nan nan nan nan nan nan nan nan nan nan nan nan nan nan nan nan nan nan nan nan nan nan nan nan nan nan nan nan nan nan nan nan nan 5 3 3 2 4 5 4
22 21 20 19 19 19 19 18 17 16 15 17 17 16 17 17 18 19 19 22 22 22 21 22 23 24 26 27 30 28 25 24 24 25 24 21 17 19 21 23 25 nan nan nan nan nan nan nan nan nan nan nan nan nan nan nan nan nan nan nan nan nan nan nan nan nan nan nan nan nan nan nan nan nan nan nan nan 6 nan 2 3 4 5 5 nan
25 25 24 22 20 20 20 20 20 19 17 16 15 15 15 16 17 19 20 20 20 20 20 20 22 26 28 28 29 28 26 25 25 24 23 20 18 20 23 23 24 nan nan nan nan nan nan nan nan nan nan nan nan nan nan nan nan nan nan nan nan nan nan nan nan nan nan nan nan nan nan nan nan nan nan nan nan nan nan nan nan nan nan nan nan
22 25 23 22 22 21 21 21 20 20 20 19 17 14 13 15 17 19 20 20 19 18 17 18 21 26 29 28 27 27 25 24 25 24 23 21 21 22 23 22 22 nan nan nan nan nan nan nan nan nan nan nan nan nan nan nan nan nan nan nan nan nan nan nan nan nan nan nan nan nan nan nan nan nan nan nan nan nan nan nan nan nan nan nan nan
24 25 24 23 22 21 20 20 20 21 21 21 20 17 15 14 15 19 20 21 20 17 16 17 21 24 25 25 25 23 24 24 23 23 22 22 22 23 21 19 20 nan nan nan nan nan nan nan nan nan nan nan nan nan nan nan nan nan nan nan nan nan nan nan nan nan nan nan nan nan nan nan nan nan nan nan nan nan nan nan nan nan nan nan nan
24 24 22 21 21 21 21 21 21 22 22 23 22 20 17 16 16 16 20 21 21 19 17 18 20 22 22 22 25 24 24 24 23 21 20 19 20 20 19 18 19 nan nan nan nan nan nan nan nan nan nan nan nan nan nan nan nan nan nan nan nan nan nan nan nan nan nan nan nan nan nan nan nan nan nan nan nan nan nan nan nan nan nan nan nan
25 23 21 21 21 22 22 21 22 22 23 22 22 22 20 18 18 17 17 19 21 21 20 21 21 21 23 24 26 25 24 25 25 22 19 18 19 19 18 18 19 nan nan nan nan nan nan nan nan nan nan nan nan nan nan nan nan nan nan nan nan nan nan nan nan nan nan nan nan nan nan nan nan nan nan nan nan nan nan nan nan nan nan nan nan
nan nan nan nan nan 23 22 20 20 21 21 21 21 21 21 21 21 21 18 16 16 18 20 21 21 20 22 24 25 24 25 24 25 22 18 16 16 17 18 19 19 nan nan nan nan nan nan nan nan nan nan nan nan nan nan nan nan nan nan nan nan nan nan nan nan nan nan nan nan nan nan nan nan nan nan nan nan nan nan nan nan nan nan nan nan
nan nan nan nan nan nan 21 20 19 18 19 20 21 19 21 21 22 23 22 18 14 14 17 19 21 21 21 22 22 21 22 22 24 22 20 17 16 17 18 19 19 nan nan nan nan nan nan nan nan nan nan nan nan nan nan nan nan nan nan nan nan nan nan nan nan nan nan nan nan nan nan nan nan nan nan nan nan nan nan nan nan nan nan nan nan
19 19 19 19 nan nan nan 20 nan nan 18 19 19 18 20 20 20 22 23 22 21 17 17 16 18 21 21 19 17 16 17 18 19 19 19 18 18 19 19 19 18 18 19 nan nan nan nan nan nan nan nan nan nan nan nan nan nan nan nan nan nan nan nan nan nan nan nan nan nan nan nan nan nan nan nan nan nan nan nan nan nan nan nan nan nan
16 18 18 18 nan nan nan nan nan nan nan nan nan 18 20 20 19 19 20 24 26 22 16 16 19 21 21 21 16 12 11 13 16 17 18 17 17 17 17 17 16 16 16 nan nan nan nan nan nan nan nan nan nan nan nan nan nan nan nan nan nan nan nan nan nan nan nan nan nan nan nan nan nan nan nan nan nan nan nan nan nan nan nan nan nan
nan 17 17 18 19 20 nan 19 nan nan nan nan nan nan 20 nan nan 21 20 21 22 22 24 25 24 21 20 21 17 16 14 11 15 17 17 17 17 16 17 16 15 14 13 nan nan nan nan nan nan nan nan nan nan nan nan nan nan nan nan nan nan nan nan nan nan nan nan nan nan nan nan nan nan nan nan nan nan nan nan nan nan nan nan nan nan
17 17 18 19 nan nan nan nan nan nan nan nan nan nan nan 24 nan nan 24 20 22 25 23 25 25 24 22 19 17 17 17 17 17 19 18 17 17 18 17 16 14 13 12 nan nan nan nan nan nan nan nan nan nan nan nan nan nan nan nan nan nan nan nan nan nan nan nan nan nan nan nan nan nan nan nan nan nan nan nan nan nan nan nan nan nan
20 21 21 23 23 23 nan nan 19 nan nan nan nan nan nan nan nan nan nan nan nan 26 25 24 25 23 23 23 21 17 17 18 19 19 18 16 16 18 18 17 16 15 15 nan nan nan nan nan nan nan nan nan nan nan nan nan nan nan nan nan nan nan nan nan nan nan nan nan nan nan nan nan nan nan nan nan nan nan nan nan nan nan nan nan nan
24 24 25 26 27 26 26 nan 23 nan nan nan 29 nan nan nan nan nan nan nan nan nan 28 28 27 25 25 23 21 21 21 19 19 19 16 12 13 17 18 20 16 17 17 15 nan nan nan nan nan nan nan nan nan nan nan nan nan nan nan nan nan nan nan nan nan nan nan nan nan nan nan nan nan nan nan nan nan nan nan nan nan nan nan nan nan
nan nan 28 29 30 30 30 32 nan nan nan 35 35 33 32 nan nan nan nan nan 32 nan nan 29 27 28 27 26 23 21 20 22 27 17 15 15 17 22 28 21 nan 17 18 19 nan nan nan nan nan nan nan nan nan nan nan nan nan nan nan nan nan nan nan nan nan nan nan nan nan nan nan nan nan nan nan nan nan nan nan nan nan nan nan nan nan
nan nan nan nan 30 nan nan nan nan 42 42 nan 42 42 41 40 38 nan nan nan nan 33 32 32 31 29 28 26 25 22 20 21 22 21 17 17 23 25 24 21 18 17 17 18 nan nan nan nan nan nan nan nan nan nan nan nan nan nan nan nan nan nan nan nan nan nan nan nan nan nan nan nan nan nan nan nan nan nan nan nan nan nan nan nan nan
nan nan nan nan nan nan nan 39 41 42 44 nan nan 47 47 nan 44 44 nan nan nan 38 36 33 33 33 31 28 27 24 22 21 20 19 19 23 25 19 21 19 nan nan nan nan nan nan nan nan nan nan nan nan nan nan nan nan nan nan nan nan nan nan nan nan nan nan nan nan nan nan nan nan nan nan nan nan nan nan nan nan nan nan nan nan nan
nan nan nan nan nan nan nan nan nan nan nan nan 44 44 46 46 46 nan nan nan nan nan nan nan nan nan 34 32 30 28 26 24 23 21 21 23 26 21 20 20 19 20 20 20 21 nan nan nan nan nan nan nan nan nan nan nan nan nan nan nan nan nan nan nan nan nan nan nan nan nan nan nan nan nan nan nan nan nan nan nan nan nan nan nan nan
nan nan nan nan nan nan nan nan nan nan nan nan nan nan nan nan nan nan nan nan nan 43 44 nan nan 36 36 34 32 31 29 28 27 24 22 22 24 25 21 17 nan 21 20 20 20 nan nan nan nan nan nan nan nan nan nan nan nan nan nan nan nan nan nan nan nan nan nan nan nan nan nan nan nan nan nan nan nan nan nan nan nan nan nan nan nan
nan nan nan nan nan nan nan nan nan nan nan nan nan nan nan nan nan nan nan nan nan nan 41 41 40 39 39 38 36 34 33 32 29 27 25 24 23 25 25 18 nan nan nan 20 17 16 nan nan 20 nan nan nan nan nan nan nan nan nan nan nan nan nan nan nan nan nan nan nan nan nan nan nan nan nan nan nan nan nan nan nan nan nan nan nan nan
nan nan nan nan nan nan nan nan nan nan nan nan nan nan nan nan nan nan nan nan nan nan nan 39 40 40 39 40 40 39 38 36 34 32 30 29 27 26 26 24 20 nan nan nan nan nan nan 16 nan 20 nan nan nan nan nan nan nan nan nan nan nan nan nan nan nan nan nan nan nan nan nan nan nan nan nan nan nan nan nan nan nan nan nan nan nan
nan nan nan nan nan nan nan nan nan nan nan nan nan nan nan nan nan nan nan nan nan nan nan nan nan 39 39 39 nan 42 nan 40 37 36 34 33 32 31 30 27 26 24 nan 25 26 22 nan nan nan 18 20 nan nan nan nan nan nan nan nan nan nan nan nan nan nan nan nan nan nan nan nan nan nan nan nan nan nan nan nan nan nan nan nan nan nan
nan nan nan nan nan nan nan nan nan nan nan nan nan nan nan nan nan nan nan nan nan nan nan nan nan nan nan nan nan nan nan 40 41 41 39 37 36 35 34 32 28 26 nan nan nan nan nan nan nan nan 21 23 nan nan nan nan nan nan nan nan nan nan nan nan nan nan nan nan nan nan nan nan nan nan nan nan nan nan nan nan nan nan nan nan nan
nan nan nan nan nan nan nan nan nan nan nan nan nan nan nan nan nan nan nan nan nan nan nan nan nan nan nan nan nan nan nan nan nan nan nan 42 42 40 39 37 34 31 29 nan nan nan nan 25 nan nan nan nan nan nan nan nan nan nan nan nan nan nan nan nan nan nan nan nan nan nan nan nan nan nan nan nan nan nan nan nan nan nan nan nan nan
nan nan nan nan nan nan nan nan nan nan nan nan nan nan nan nan nan nan nan nan nan nan nan nan nan nan nan nan nan nan nan nan nan nan nan nan 43 43 41 40 38 35 33 30 29 nan nan nan nan nan nan nan nan nan nan nan nan nan nan nan nan nan nan nan nan nan nan nan nan nan nan nan nan nan nan nan nan nan nan nan nan nan nan nan nan
nan nan nan nan nan nan nan nan nan nan nan nan nan nan nan nan nan nan nan nan nan nan nan nan nan nan nan nan nan nan nan nan nan nan nan nan nan 38 37 39 39 41 nan nan nan 30 nan nan nan nan nan nan nan nan nan nan nan nan nan nan nan nan nan nan nan nan nan nan nan nan nan nan nan nan nan nan nan nan nan nan nan nan nan nan nan
nan nan nan nan nan nan nan nan nan nan nan nan nan nan nan nan nan nan nan nan nan nan nan nan nan nan nan nan nan nan nan nan nan nan nan nan nan 40 35 nan nan nan nan nan nan nan nan nan nan nan nan nan nan nan nan 31 nan nan nan nan nan nan nan nan nan nan nan nan nan nan nan nan nan nan nan nan nan nan nan nan nan nan nan nan nan
Wind_Direction
339 325 312 297 289 282 278 274 272 269 267 270 273 279 285 284 282 282 280 284 282 281 275 271 273 274 272 268 272 272 271 274 271 268 269 268 264 261 260 260 258 256 256 256 257 259 260 260 260 260 262 265 269 270 271 271 272 274 276 280 277 278 280 280 279 279 283 286 282 283 281 276 276 275 274 274 272 271 270 269 269 270 270 270 272
340 331 318 306 296 290 284 277 276 276 270 272 274 276 277 278 282 280 283 285 283 280 277 276 275 269 274 272 272 275 276 275 275 277 278 276 272 268 266 263 261 261 258 257 257 256 257 260 261 262 264 267 268 270 270 272 272 272 273 278 nan 279 281 278 277 279 292 nan 289 289 284 280 277 275 275 274 273 273 274 273 273 273 272 272 273
360 343 325 314 304 297 286 280 279 275 274 272 271 274 275 275 276 278 277 278 280 287 290 283 275 270 271 276 276 276 274 274 275 276 278 277 276 274 271 269 267 265 264 264 261 260 261 263 264 265 264 265 268 269 269 269 270 270 270 273 275 nan nan 285 279 277 281 284 286 290 295 294 285 282 279 276 276 276 276 276 276 275 274 275 275
7 0 345 326 315 300 290 282 279 278 278 274 273 274 268 267 270 273 274 272 273 275 280 282 278 277 276 277 279 280 282 284 284 282 279 278 277 275 274 274 271 271 269 nan 269 267 266 267 270 268 267 266 266 266 264 265 267 268 271 274 275 279 nan 280 281 278 278 279 nan nan 284 287 296 290 285 281 280 278 276 277 278 279 280 278 276
8 4 2 346 335 320 304 289 276 275 277 276 275 272 263 268 270 273 273 270 269 278 284 286 288 287 283 283 282 283 287 285 284 280 280 279 277 273 273 nan nan nan nan nan nan 270 268 268 268 269 267 263 264 265 266 266 268 271 272 275 275 277 280 280 280 278 278 277 278 281 nan 291 280 291 290 281 280 281 279 280 278 279 278 278 276
8 5 3 1 353 337 319 302 290 275 268 269 272 271 270 270 271 269 265 265 266 274 282 286 287 289 291 289 286 283 283 284 280 280 280 277 276 278 273 nan nan nan nan nan nan 271 270 269 268 270 270 269 268 268 270 273 272 271 273 274 276 275 277 279 279 279 277 275 275 276 276 277 274 277 285 284 277 277 280 278 279 279 279 277 276
2 1 359 358 359 353 339 324 310 286 268 260 264 268 273 273 273 267 258 254 258 266 275 280 286 289 289 284 279 277 278 278 280 281 281 283 282 276 273 269 nan nan nan nan nan nan 270 270 270 nan nan 275 nan 274 273 272 nan 272 272 273 273 275 275 277 277 278 279 277 275 276 275 274 277 278 279 282 283 275 272 nan nan nan 275 nan nan
357 2 1 358 355 359 355 344 328 298 273 261 256 261 273 276 277 272 261 260 257 262 276 280 283 286 287 285 283 280 278 281 288 285 284 287 285 280 277 274 nan nan nan nan nan nan nan nan 270 271 nan nan nan nan 273 272 nan 270 269 269 272 273 273 274 276 277 277 278 278 276 276 278 276 279 279 281 285 286 nan nan nan nan nan 273 nan
356 355 358 358 349 359 1 357 340 320 285 267 249 248 257 267 nan 272 267 268 263 268 285 290 284 284 286 286 284 279 281 285 287 288 288 286 286 283 277 272 272 nan nan nan nan nan nan nan nan 269 270 270 nan nan nan 272 270 269 268 nan 269 273 274 275 276 277 276 277 279 279 280 277 278 277 277 280 284 287 288 nan nan nan nan nan nan
359 357 351 351 350 354 357 358 356 344 300 269 240 234 244 254 268 279 279 278 279 289 297 294 289 288 288 289 288 284 284 283 285 287 289 288 286 283 280 278 274 272 nan nan nan nan nan nan nan 271 271 271 272 272 nan nan nan 270 270 271 271 273 276 276 276 277 279 278 278 276 275 277 279 281 280 280 286 292 290 nan nan 288 nan nan nan
359 357 354 345 344 350 354 358 359 354 334 302 252 243 248 256 267 279 281 274 282 292 294 289 286 285 283 287 288 287 288 287 287 289 289 288 284 283 281 276 273 270 nan nan nan nan nan nan nan 273 273 273 nan nan nan nan nan nan nan nan nan nan 275 276 277 276 277 277 275 275 275 274 274 273 276 275 274 280 289 290 290 286 nan nan nan
354 353 355 352 341 343 349 357 360 359 358 348 307 262 256 259 259 266 270 268 273 280 281 280 276 275 273 279 283 283 286 286 289 290 290 290 286 281 279 279 276 273 nan nan nan nan nan nan nan 277 276 275 nan nan nan nan nan nan nan nan nan nan nan 276 278 278 278 281 279 277 278 279 279 276 273 274 270 282 289 292 289 nan nan nan nan
344 347 350 353 356 347 345 351 359 358 1 3 350 320 284 266 265 263 265 269 267 271 273 274 271 272 274 278 280 282 287 288 292 292 291 289 286 283 281 278 278 nan nan nan nan nan nan nan nan nan nan nan nan nan nan nan nan nan nan nan nan nan nan nan nan 281 282 282 282 283 282 281 280 278 277 276 279 285 289 291 288 289 nan nan nan
325 335 347 352 356 354 346 343 347 353 357 359 358 348 325 295 289 280 277 278 277 277 277 277 279 279 280 281 283 287 292 294 293 293 292 290 289 288 285 281 280 nan nan nan nan nan nan nan nan nan nan nan nan nan nan nan nan nan nan nan nan nan nan nan nan nan 282 281 282 285 283 282 281 278 280 281 282 289 289 289 290 285 nan nan nan
321 329 336 339 343 349 347 344 341 341 345 350 347 347 339 327 318 316 306 300 297 292 286 289 288 290 288 287 287 289 293 293 293 290 292 293 291 290 288 287 285 nan nan nan nan nan nan nan nan nan nan nan nan nan nan nan nan nan nan nan nan nan nan nan nan nan nan 282 283 285 286 285 282 282 283 283 285 283 285 292 291 285 280 nan nan
314 313 320 324 324 331 335 339 339 338 341 340 343 338 333 327 321 318 315 309 307 305 301 298 295 289 290 289 290 290 289 290 290 290 291 291 291 291 290 289 285 nan nan nan nan nan nan nan nan nan nan nan nan nan nan nan nan nan nan nan nan nan nan nan nan nan nan nan 287 288 293 288 287 285 286 287 282 280 274 283 286 285 283 nan nan
312 309 306 308 312 314 320 324 325 329 329 333 333 331 330 326 323 321 318 313 310 308 305 299 295 293 293 293 292 293 294 293 291 292 293 293 291 289 289 288 286 nan nan nan nan nan nan nan nan nan nan nan nan nan nan nan nan nan nan nan nan nan nan nan nan nan nan nan nan nan 295 nan nan 290 288 289 285 281 280 268 262 271 283 289 nan
306 303 300 299 300 303 306 307 315 316 319 320 325 325 327 330 331 328 324 322 316 311 307 302 300 299 297 299 298 297 296 296 294 295 296 296 293 291 292 292 292 nan nan nan nan nan nan nan nan nan nan nan nan nan nan nan nan nan nan nan nan nan nan nan nan nan nan nan nan nan nan nan nan nan 291 287 290 289 284 276 277 288 289 298 nan
306 307 306 304 303 303 304 305 308 309 309 308 308 312 316 322 326 328 329 325 321 313 309 305 304 300 300 303 303 302 301 299 298 299 300 301 298 295 295 296 296 nan nan nan nan nan nan nan nan nan nan nan nan nan nan nan nan nan nan nan nan nan nan nan nan nan nan nan nan nan nan nan nan nan nan 300 290 288 291 293 279 248 274 268 302
307 307 306 305 303 303 303 306 310 312 313 310 310 308 312 313 317 323 325 325 323 321 314 311 309 310 308 305 304 303 302 302 302 304 306 305 303 302 301 304 307 nan nan nan nan nan nan nan nan nan nan nan nan nan nan nan nan nan nan nan nan nan nan nan nan nan nan nan nan nan nan nan nan nan nan nan nan 302 293 291 294 281 283 285 290
309 307 307 306 304 303 303 304 307 308 308 308 308 312 312 311 316 322 327 329 328 325 324 320 315 314 312 308 304 301 302 303 307 311 311 307 303 303 306 310 312 nan nan nan nan nan nan nan nan nan nan nan nan nan nan nan nan nan nan nan nan nan nan nan nan nan nan nan nan nan nan nan nan nan nan nan nan nan 319 353 304 306 307 309 306
299 302 301 302 300 299 299 301 302 304 307 308 307 308 313 315 317 321 324 328 333 335 335 332 324 315 314 309 306 303 309 313 313 313 314 310 308 305 307 313 315 nan nan nan nan nan nan nan nan nan nan nan nan nan nan nan nan nan nan nan nan nan nan nan nan nan nan nan nan nan nan nan nan nan nan nan nan nan nan 331 335 333 342 328 310
290 291 292 292 293 296 299 300 303 305 305 305 307 309 309 313 316 317 321 326 331 335 336 333 327 322 317 310 308 312 318 321 316 312 315 313 306 307 309 314 314 314 nan nan nan nan nan nan nan nan nan nan nan nan nan nan nan nan nan nan nan nan nan nan nan nan nan nan nan nan nan nan nan nan nan nan nan nan nan 73 43 52 45 346 335
293 292 291 293 297 303 299 298 301 303 306 308 309 310 312 312 313 316 320 321 324 325 326 327 326 323 315 310 311 316 322 320 315 315 315 310 307 312 315 316 314 nan nan nan nan nan nan nan nan nan nan nan nan nan nan nan nan nan nan nan nan nan nan nan nan nan nan nan nan nan nan nan nan nan nan nan nan nan 108 105 95 67 33 2 358
295 293 292 296 296 288 283 284 286 288 296 306 308 309 312 312 311 312 312 315 320 320 322 322 321 317 311 315 320 319 316 317 323 318 318 314 314 316 318 321 315 nan nan nan nan nan nan nan nan nan nan nan nan nan nan nan nan nan nan nan nan nan nan nan nan nan nan nan nan nan nan nan nan nan nan nan nan 130 nan 80 35 15 357 356 nan
295 293 291 287 283 280 278 275 274 275 272 274 290 305 309 309 310 308 309 309 311 311 313 314 312 308 308 317 318 318 323 326 323 319 320 319 318 320 322 322 319 nan nan nan nan nan nan nan nan nan nan nan nan nan nan nan nan nan nan nan nan nan nan nan nan nan nan nan nan nan nan nan nan nan nan nan nan nan nan nan nan nan nan nan nan
293 292 294 292 283 275 272 269 267 265 263 265 268 275 287 303 309 309 305 304 304 306 307 305 303 303 306 314 317 319 322 323 322 322 319 322 325 325 326 325 320 nan nan nan nan nan nan nan nan nan nan nan nan nan nan nan nan nan nan nan nan nan nan nan nan nan nan nan nan nan nan nan nan nan nan nan nan nan nan nan nan nan nan nan nan
295 291 285 281 278 274 271 272 271 269 265 262 260 263 271 277 296 303 303 302 299 300 302 300 297 299 305 316 320 322 322 322 320 320 320 323 326 326 327 324 321 nan nan nan nan nan nan nan nan nan nan nan nan nan nan nan nan nan nan nan nan nan nan nan nan nan nan nan nan nan nan nan nan nan nan nan nan nan nan nan nan nan nan nan nan
284 283 281 280 277 277 276 274 273 270 267 264 264 262 267 275 281 288 296 301 301 297 296 296 295 298 305 312 315 317 316 316 315 318 322 323 324 325 327 326 323 nan nan nan nan nan nan nan nan nan nan nan nan nan nan nan nan nan nan nan nan nan nan nan nan nan nan nan nan nan nan nan nan nan nan nan nan nan nan nan nan nan nan nan nan
285 282 281 278 273 271 272 271 268 265 265 266 270 270 269 271 274 280 287 289 292 293 292 292 294 296 299 305 311 313 313 312 312 319 323 321 321 326 331 332 328 nan nan nan nan nan nan nan nan nan nan nan nan nan nan nan nan nan nan nan nan nan nan nan nan nan nan nan nan nan nan nan nan nan nan nan nan nan nan nan nan nan nan nan nan
nan nan nan nan nan 263 264 262 260 260 261 266 267 270 275 276 279 277 271 266 272 285 289 292 292 294 297 302 308 311 310 315 317 319 316 317 323 327 333 335 330 nan nan nan nan nan nan nan nan nan nan nan nan nan nan nan nan nan nan nan nan nan nan nan nan nan nan nan nan nan nan nan nan nan nan nan nan nan nan nan nan nan nan nan nan
nan nan nan nan nan nan 259 256 256 256 258 262 270 267 269 274 278 279 284 280 272 275 286 290 291 288 291 299 305 308 310 315 319 324 327 328 330 331 332 333 329 nan nan nan nan nan nan nan nan nan nan nan nan nan nan nan nan nan nan nan nan nan nan nan nan nan nan nan nan nan nan nan nan nan nan nan nan nan nan nan nan nan nan nan nan
271 269 267 265 nan nan nan 260 nan nan 261 260 263 264 269 272 275 282 284 284 284 282 274 273 279 283 288 291 294 298 303 310 316 323 328 330 332 331 331 331 331 324 318 nan nan nan nan nan nan nan nan nan nan nan nan nan nan nan nan nan nan nan nan nan nan nan nan nan nan nan nan nan nan nan nan nan nan nan nan nan nan nan nan nan nan
267 268 271 271 nan nan nan nan nan nan nan nan nan 268 273 270 264 271 281 283 277 272 277 281 280 282 284 278 277 280 294 302 306 312 317 323 325 327 326 328 326 320 318 nan nan nan nan nan nan nan nan nan nan nan nan nan nan nan nan nan nan nan nan nan nan nan nan nan nan nan nan nan nan nan nan nan nan nan nan nan nan nan nan nan nan
nan 260 263 270 273 272 nan 264 nan nan nan nan nan nan 271 nan nan 261 260 266 279 280 285 285 281 275 279 286 290 297 301 298 298 301 306 313 317 317 323 322 319 313 310 nan nan nan nan nan nan nan nan nan nan nan nan nan nan nan nan nan nan nan nan nan nan nan nan nan nan nan nan nan nan nan nan nan nan nan nan nan nan nan nan nan nan
275 273 275 275 nan nan nan nan nan nan nan nan nan nan nan 274 nan nan 266 265 265 263 259 264 274 279 277 277 287 292 292 295 295 295 299 303 310 314 316 314 310 300 288 nan nan nan nan nan nan nan nan nan nan nan nan nan nan nan nan nan nan nan nan nan nan nan nan nan nan nan nan nan nan nan nan nan nan nan nan nan nan nan nan nan nan
280 278 276 278 280 278 nan nan 272 nan nan nan nan nan nan nan nan nan nan nan nan 264 263 263 259 262 268 278 281 271 272 280 284 286 291 294 302 306 302 300 306 300 289 nan nan nan nan nan nan nan nan nan nan nan nan nan nan nan nan nan nan nan nan nan nan nan nan nan nan nan nan nan nan nan nan nan nan nan nan nan nan nan nan nan nan
276 276 278 277 274 272 272 nan 272 nan nan nan 270 nan nan nan nan nan nan nan nan nan 255 257 262 259 256 261 264 278 286 279 259 259 266 280 287 290 292 278 286 293 288 283 nan nan nan nan nan nan nan nan nan nan nan nan nan nan nan nan nan nan nan nan nan nan nan nan nan nan nan nan nan nan nan nan nan nan nan nan nan nan nan nan nan
nan nan 276 273 273 271 269 268 nan nan nan 268 268 267 267 nan nan nan nan nan 258 nan nan 255 249 252 253 247 250 252 254 270 284 288 294 288 276 268 267 280 nan 284 281 278 nan nan nan nan nan nan nan nan nan nan nan nan nan nan nan nan nan nan nan nan nan nan nan nan nan nan nan nan nan nan nan nan nan nan nan nan nan nan nan nan nan
nan nan nan nan 282 nan nan nan nan 266 267 nan 267 268 265 263 258 nan nan nan nan 259 258 252 245 243 245 247 244 239 245 254 268 292 284 273 270 276 280 278 281 284 284 283 nan nan nan nan nan nan nan nan nan nan nan nan nan nan nan nan nan nan nan nan nan nan nan nan nan nan nan nan nan nan nan nan nan nan nan nan nan nan nan nan nan
nan nan nan nan nan nan nan 273 273 270 269 nan nan 269 269 nan 265 263 nan nan nan 262 261 257 248 240 238 237 239 241 243 246 259 268 274 282 280 285 289 289 nan nan nan nan nan nan nan nan nan nan nan nan nan nan nan nan nan nan nan nan nan nan nan nan nan nan nan nan nan nan nan nan nan nan nan nan nan nan nan nan nan nan nan nan nan
nan nan nan nan nan nan nan nan nan nan nan nan 270 269 270 270 270 nan nan nan nan nan nan nan nan nan 239 238 238 245 250 253 254 258 264 271 284 286 278 279 283 282 286 288 289 nan nan nan nan nan nan nan nan nan nan nan nan nan nan nan nan nan nan nan nan nan nan nan nan nan nan nan nan nan nan nan nan nan nan nan nan nan nan nan nan
nan nan nan nan nan nan nan nan nan nan nan nan nan nan nan nan nan nan nan nan nan 266 266 nan nan 248 244 241 243 243 249 253 254 255 255 259 268 280 276 277 nan 288 288 293 296 nan nan nan nan nan nan nan nan nan nan nan nan nan nan nan nan nan nan nan nan nan nan nan nan nan nan nan nan nan nan nan nan nan nan nan nan nan nan nan nan
nan nan nan nan nan nan nan nan nan nan nan nan nan nan nan nan nan nan nan nan nan nan 264 264 262 256 250 249 247 246 246 246 247 250 251 249 253 268 281 275 nan nan nan 289 290 293 nan nan 294 nan nan nan nan nan nan nan nan nan nan nan nan nan nan nan nan nan nan nan nan nan nan nan nan nan nan nan nan nan nan nan nan nan nan nan nan
nan nan nan nan nan nan nan nan nan nan nan nan nan nan nan nan nan nan nan nan nan nan nan 262 262 260 256 252 250 249 247 246 246 248 249 247 248 254 268 278 270 nan nan nan nan nan nan 283 nan 286 nan nan nan nan nan nan nan nan nan nan nan nan nan nan nan nan nan nan nan nan nan nan nan nan nan nan nan nan nan nan nan nan nan nan nan
nan nan nan nan nan nan nan nan nan nan nan nan nan nan nan nan nan nan nan nan nan nan nan nan nan 260 258 254 nan 247 nan 243 245 246 246 246 246 250 256 261 272 275 nan 275 275 272 nan nan nan 269 273 nan nan nan nan nan nan nan nan nan nan nan nan nan nan nan nan nan nan nan nan nan nan nan nan nan nan nan nan nan nan nan nan nan nan
nan nan nan nan nan nan nan nan nan nan nan nan nan nan nan nan nan nan nan nan nan nan nan nan nan nan nan nan nan nan nan 242 240 241 241 240 244 248 252 257 259 265 nan nan nan nan nan nan nan nan 256 261 nan nan nan nan nan nan nan nan nan nan nan nan nan nan nan nan nan nan nan nan nan nan nan nan nan nan nan nan nan nan nan nan nan
nan nan nan nan nan nan nan nan nan nan nan nan nan nan nan nan nan nan nan nan nan nan nan nan nan nan nan nan nan nan nan nan nan nan nan 239 240 242 248 252 256 259 262 nan nan nan nan 267 nan nan nan nan nan nan nan nan nan nan nan nan nan nan nan nan nan nan nan nan nan nan nan nan nan nan nan nan nan nan nan nan nan nan nan nan nan
nan nan nan nan nan nan nan nan nan nan nan nan nan nan nan nan nan nan nan nan nan nan nan nan nan nan nan nan nan nan nan nan nan nan nan nan 241 242 243 246 251 251 254 254 256 nan nan nan nan nan nan nan nan nan nan nan nan nan nan nan nan nan nan nan nan nan nan nan nan nan nan nan nan nan nan nan nan nan nan nan nan nan nan nan nan
nan nan nan nan nan nan nan nan nan nan nan nan nan nan nan nan nan nan nan nan nan nan nan nan nan nan nan nan nan nan nan nan nan nan nan nan nan 259 251 249 247 248 nan nan nan 248 nan nan nan nan nan nan nan nan nan nan nan nan nan nan nan nan nan nan nan nan nan nan nan nan nan nan nan nan nan nan nan nan nan nan nan nan nan nan nan
nan nan nan nan nan nan nan nan nan nan nan nan nan nan nan nan nan nan nan nan nan nan nan nan nan nan nan nan nan nan nan nan nan nan nan nan nan 252 268 nan nan nan nan nan nan nan nan nan nan nan nan nan nan nan nan 278 nan nan nan nan nan nan nan nan nan nan nan nan nan nan nan nan nan nan nan nan nan nan nan nan nan nan nan nan nan